sat.trackr.live / text

‹ back to catalog

STARLINK-5239

NORAD 54183 · 2022-141AC

PAYLOAD ACTIVE UNKNOWN

§ Identity

Operator
Country
US
Launch date
2022-10-28
Launch site
AFWTR
Launch vehicle
Mass (kg)
RCS (m²)

Purposes: comms

External: N2YO · Heavens-Above · Gunter

§ Orbital elements

Epoch: 2026-05-24T22:28:12.837216Z

Period
95.44 min
Inclination
53.2144°
Eccentricity
0.0001088
Mean motion
15.08838715 rev/d
Perigee alt
539.0 km
Apogee alt
540.5 km
Semi-major
6,917.9 km
B*
-9.8814e-6
RAAN
21.4557°
Arg perigee
81.9385°
Mean anomaly
278.1731°
Rev number
19,737

§ Raw data

STARLINK-52391 54183U 22141AC  26144.93625969 -.00000445  00000+0 -98814-5 0  99962 54183  53.2144  21.4557 0001088  81.9385 278.1731 15.08838715197379

JSON: /api/v1/satellites/54183 · /tle

For live sub-satellite position, see the globe view (requires WebGL).

§ Visibility from observer

Set your observer location to see the next 7 days of passes ≥ 10°. The values pass through the URL so the page stays shareable.

No JS? Fill the form by hand. The geolocation button needs JavaScript.